This demonstration page uses our WeatherBlox Daily Observations layout. Learn more.

Hourly Observations for February 13, 2019

Temp ( °F °C ) Dew Point ( °F °C ) Humidity (%) Winds ( mph kmh ) Pressure ( in mb ) Visibility ( mi km ) Precip ( " mm )
12:15 am 00:15 Clear 28 -2.2 24 -4.7 83 83 S 7 11 30.17 1022 10 16.0934 0 0
12:35 am 00:35 Clear 28 -2 24 -4.6 83 83 S 8 13 30.15 1021 10 16.0934 0 0
12:55 am 00:55 Clear 30 -0.9 24 -4.4 77 77 S 12 19 30.12 1020 10 16.0934 0 0
1:15 am 01:15 Clear 31 -0.7 24 -4.5 76 76 S 13 20 30.12 1020 10 16.0934 0 0
1:35 am 01:35 Clear 30 -1 24 -4.5 77 77 S 12 19 30.11 1020 10 16.0934 0 0
1:55 am 01:55 Clear 29 -1.6 24 -4.7 80 80 S 9 15 30.12 1020 10 16.0934 0 0
2:15 am 02:15 Clear 29 -1.7 24 -4.7 80 80 S 6 9 30.12 1020 10 16.0934 0 0
2:35 am 02:35 Clear 28 -2.5 24 -4.7 85 85 S 6 9 30.11 1020 10 16.0934 0 0
2:55 am 02:55 Clear 28 -2.3 24 -4.5 85 85 S 6 9 30.11 1020 10 16.0934 0 0
3:15 am 03:15 Clear 27 -2.9 23 -4.8 87 87 Calm 30.11 1020 10 16.0934 0 0
3:35 am 03:35 Clear 26 -3.1 24 -4.7 89 89 S 5 7 30.09 1019 10 16.0934 0 0
3:55 am 03:55 Clear 28 -2.3 24 -4.5 85 85 S 6 9 30.08 1019 10 16.0934 0 0
4:15 am 04:15 Clear 27 -2.6 24 -4.6 86 86 SSE 3 6 30.06 1018 10 16.0934 0 0
4:35 am 04:35 Clear 27 -2.7 24 -4.3 89 89 Calm 30.05 1018 10 16.0934 0 0
4:55 am 04:55 Clear 28 -2.2 25 -4.1 87 87 S 5 7 30.03 1017 10 16.0934 0 0
5:15 am 05:15 Clear 29 -1.8 25 -4 85 85 SSE 5 7 30.01 1016 10 16.0934 0 0
5:35 am 05:35 Clear 28 -2 25 -3.7 88 88 SSE 6 9 30 1016 10 16.0934 0 0
5:55 am 05:55 Clear 30 -1.3 25 -3.7 84 84 SSE 7 11 29.98 1015 10 16.0934 0 0
6:15 am 06:15 Clear 29 -1.4 25 -3.7 85 85 S 6 9 29.98 1015 10 16.0934 0 0
6:35 am 06:35 Clear 29 -1.8 25 -4 85 85 S 3 6 29.98 1015 10 16.0934 0 0
6:55 am 06:55 Clear 28 -2.3 25 -4.1 88 88 SSE 5 7 29.98 1015 10 16.0934 0 0
7:15 am 07:15 Clear 27 -2.6 24 -4.4 88 88 SSE 5 7 29.97 1015 10 16.0934 0 0
7:35 am 07:35 Sunny 28 -2.5 24 -4.3 88 88 SSE 3 6 29.97 1015 10 16.0934 0 0
7:55 am 07:55 Sunny 27 -2.6 24 -4.2 89 89 SSE 5 7 29.96 1015 10 16.0934 0 0
8:15 am 08:15 Sunny 28 -2.5 25 -4.1 89 89 SSE 6 9 29.95 1014 10 16.0934 0 0
8:35 am 08:35 Sunny 29 -1.9 25 -3.7 88 88 SSE 6 9 29.94 1014 10 16.0934 0 0
8:55 am 08:55 Sunny 30 -1.2 26 -3.3 86 86 S 7 11 29.94 1014 10 16.0934 0 0
9:15 am 09:15 Sunny 31 -0.5 27 -3 83 83 S 7 11 29.92 1013 10 16.0934 0 0
9:35 am 09:35 Sunny 32 0.1 27 -3 80 80 S 8 13 29.9 1013 10 16.0934 0 0
9:55 am 09:55 Sunny 35 1.4 27 -2.6 75 75 S 7 11 29.89 1012 10 16.0934 0 0
10:15 am 10:15 Sunny 36 2.1 27 -2.8 70 70 S 7 11 29.87 1012 10 16.0934 0 0
10:35 am 10:35 Sunny 37 2.7 28 -2.2 70 70 S 8 13 29.85 1011 10 16.0934 0 0
10:55 am 10:55 Sunny 39 3.8 27 -2.7 63 63 S 8 13 29.84 1010 10 16.0934 0 0
11:15 am 11:15 Sunny 40 4.3 28 -2.3 63 63 S 8 13 29.82 1010 10 16.0934 0 0
11:35 am 11:35 Sunny 41 5 28 -2.2 60 60 SSW 6 9 29.82 1010 10 16.0934 0 0
11:55 am 11:55 Sunny 42 5.7 29 -1.9 58 58 S 7 11 29.79 1009 10 16.0934 0 0
12:15 pm 12:15 Sunny 42 5.8 29 -1.8 58 58 S 6 9 29.77 1008 10 16.0934 0 0
12:35 pm 12:35 Sunny 44 6.6 29 -1.9 55 55 SSW 10 17 29.75 1008 10 16.0934 0 0
12:55 pm 12:55 Sunny 45 7.2 29 -1.5 54 54 S 9 15 29.73 1007 10 16.0934 0 0
1:15 pm 13:15 Sunny 45 7.2 29 -1.5 54 54 S 9 15 29.72 1006 10 16.0934 0 0
1:35 pm 13:35 Sunny 46 8 29 -1.6 51 51 SSE 7 11 29.69 1005 10 16.0934 0 0
1:55 pm 13:55 Sunny 48 8.8 29 -1.4 49 49 SSE 6 9 29.66 1005 10 16.0934 0 0
2:15 pm 14:15 Sunny 48 9 29 -1.5 48 48 SSE 6 9 29.64 1004 10 16.0934 0 0
2:35 pm 14:35 Sunny 50 9.9 29 -1.7 45 45 SSE 8 13 29.62 1003 10 16.0934 0 0
2:55 pm 14:55 Sunny 50 10.1 28 -2.3 42 42 SE 8 13 29.61 1003 10 16.0934 0 0
3:15 pm 15:15 Sunny 51 10.6 29 -1.6 43 43 SE 9 15 29.58 1002 10 16.0934 0 0
3:35 pm 15:35 Sunny 51 10.4 29 -1.9 43 43 S 16 26 29.6 1002 10 16.0934 0 0
3:55 pm 15:55 Sunny 51 10.4 30 -1.2 45 45 S 12 19 29.59 1002 10 16.0934 0 0
4:15 pm 16:15 Sunny 50 10 30 -1.3 46 46 S 12 19 29.58 1002 10 16.0934 0 0
4:35 pm 16:35 Sunny 49 9.5 30 -1 48 48 S 15 24 29.58 1002 10 16.0934 0 0
4:55 pm 16:55 Sunny 47 8.6 30 -1.2 51 51 S 13 20 29.58 1002 10 16.0934 0 0
5:15 pm 17:15 Sunny 46 7.5 30 -1 55 55 S 10 17 29.57 1002 10 16.0934 0 0
5:35 pm 17:35 Sunny 44 6.5 30 -1.1 59 59 S 7 11 29.57 1001 10 16.0934 0 0
6:15 pm 18:15 Clear 37 2.9 28 -2.4 68 68 SSE 9 15 29.61 1003 10 16.0934 0 0
6:35 pm 18:35 Clear 37 2.9 28 -2.2 69 69 SSE 8 13 29.62 1003 10 16.0934 0 0
6:55 pm 18:55 Clear 36 2.1 28 -2.2 73 73 SSE 7 11 29.62 1003 10 16.0934 0 0
7:15 pm 19:15 Clear 37 2.9 29 -1.5 73 73 S 9 15 29.62 1003 10 16.0934 0 0
7:35 pm 19:35 Partly Cloudy 37 3 29 -1.5 73 73 SSE 7 11 29.61 1003 10 16.0934 0 0
7:55 pm 19:55 Clear 37 2.8 29 -1.5 74 74 SSE 7 11 29.6 1002 10 16.0934 0 0
8:15 pm 20:15 Clear 36 2.2 29 -1.7 76 76 SSE 8 13 29.59 1002 10 16.0934 0 0
8:35 pm 20:35 Clear 36 2.1 29 -1.7 76 76 SE 9 15 29.58 1002 10 16.0934 0 0
8:55 pm 20:55 Clear 34 1.3 29 -1.7 81 81 SSE 6 9 29.58 1002 10 16.0934 0 0
9:15 pm 21:15 Clear 35 1.4 29 -1.6 81 81 SSE 8 13 29.56 1001 10 16.0934 0 0
9:35 pm 21:35 Clear 34 1.3 29 -1.7 81 81 SSE 7 11 29.56 1001 10 16.0934 0 0
9:55 pm 21:55 Clear 35 1.7 29 -1.8 78 78 SSE 7 11 29.56 1001 10 16.0934 0 0
10:15 pm 22:15 Partly Cloudy 36 2 29 -1.6 77 77 SSE 9 15 29.54 1000 10 16.0934 0 0
10:35 pm 22:35 Partly Cloudy 37 2.5 29 -1.8 74 74 S 8 13 29.53 1000 10 16.0934 0 0
10:55 pm 22:55 Partly Cloudy 36 2.2 29 -1.8 75 75 S 5 7 29.53 1000 10 16.0934 0 0
11:15 pm 23:15 Partly Cloudy 37 2.5 29 -1.8 74 74 SSW 3 6 29.54 1000 10 16.0934 0 0
11:35 pm 23:35 Partly Cloudy 37 2.5 29 -1.9 73 73 Calm 29.55 1001 10 16.0934 0 0
11:55 pm 23:55 Clear 37 2.9 28 -2.1 70 70 Calm 29.52 1000 10 16.0934 0 0

Powered by AerisWeather